Scappoose, OR

9:11 PM PDT on October 19, 2017 (GMT -0700)
Scappoose Industrial

Weather History for KSPB - August, 2013

Change the Weather History Date:

Saturday, August 17, 2013

  Actual Average Record
Temperature  
Mean Temperature 68 °F -  
Max Temperature 82 °F - 98 °F (2012)
Min Temperature 55 °F - 47 °F (2011)
Degree Days  
Heating Degree Days 0    
Month to date heating degree days 4  
Since 1 June heating degree days 124  
Since 1 July heating degree days 22  
Cooling Degree Days 4    
Month to date cooling degree days 71  
Year to date cooling degree days 257  
Since 1 June cooling degree days 249  
Growing Degree Days 18 (Base 50)    
Moisture  
Dew Point 55 °F    
Average Humidity 66    
Maximum Humidity 86    
Minimum Humidity 45    
Precipitation  
Precipitation 0.00 in - 0.04 in (2008)
Month to date precipitation 0.02  
Year to date precipitation 13.91  
Sea Level Pressure  
Sea Level Pressure 30.05 in    
Wind  
Wind Speed 5 mph (North)    
Max Wind Speed 15 mph    
Max Gust Speed 20 mph    
Visibility 10 miles    
Events      
T = Trace of Precipitation, MM = Missing Value Source: NWS Daily Summary

Daily Weather History Graph

Daily Weather History Graph

Search for Another Location

Airport or City:

Trip Planner

Search our weather history database for the weather conditions in past years. The results will help you decide how hot, cold, wet, or windy it might be!

Date:

Astronomy

Aug. 17, 2013 Rise Set
Actual Time 6:14 AM PDT 8:15 PM PDT
Civil Twilight 5:42 AM PDT 8:47 PM PDT
Nautical Twilight 5:02 AM PDT 9:27 PM PDT
Astronomical Twilight 4:18 AM PDT 10:10 PM PDT
Moon 5:40 PM PDT (8/17) 2:17 AM PDT (8/17)
Length of Visible Light 15h 05m
Length of Day
14h 01m
Waxing Gibbous, 85% of the Moon is Illuminated
Aug 17
Waxing Gibbous
Aug 20
Full
Aug 28
Last Quarter
Sep 5
New
Sep 12
First Quarter

Hourly Weather History & Observations

Time (PDT) Temp. Heat Index Dew Point Humidity Pressure Visibility Wind Dir Wind Speed Gust Speed Precip Events Conditions
12:53 AM 63.0 °F - 53.1 °F 70% 30.04 in 10.0 mi Calm Calm - N/A   Mostly Cloudy
1:53 AM 60.1 °F - 53.1 °F 78% 30.04 in 10.0 mi NW 3.5 mph - N/A   Clear
2:53 AM 59.0 °F - 53.1 °F 81% 30.04 in 10.0 mi Calm Calm - N/A   Scattered Clouds
3:53 AM 55.0 °F - 51.1 °F 86% 30.05 in 10.0 mi Calm Calm - N/A   Partly Cloudy
4:53 AM 57.9 °F - 53.1 °F 84% 30.05 in 10.0 mi Calm Calm - N/A   Overcast
5:53 AM 57.9 °F - 54.0 °F 87% 30.06 in 10.0 mi Calm Calm - N/A   Overcast
6:53 AM 59.0 °F - 54.0 °F 83% 30.07 in 10.0 mi Calm Calm - N/A   Overcast
7:53 AM 64.0 °F - 55.9 °F 75% 30.08 in 10.0 mi Calm Calm - N/A   Scattered Clouds
8:53 AM 66.9 °F - 55.0 °F 66% 30.09 in 10.0 mi SE 3.5 mph - N/A   Mostly Cloudy
9:53 AM 70.0 °F - 55.9 °F 61% 30.09 in 10.0 mi Calm Calm - N/A   Partly Cloudy
10:53 AM 72.0 °F - 54.0 °F 53% 30.08 in 10.0 mi Variable 3.5 mph - N/A   Partly Cloudy
11:53 AM 75.0 °F - 54.0 °F 48% 30.08 in 10.0 mi Calm Calm - N/A   Clear
12:53 PM 77.0 °F - 55.0 °F 47% 30.07 in 10.0 mi East 4.6 mph - N/A   Partly Cloudy
1:53 PM 79.0 °F - 55.9 °F 45% 30.06 in 10.0 mi Variable 5.8 mph - N/A   Scattered Clouds
2:53 PM 81.0 °F 81.1 °F 57.9 °F 45% 30.04 in 10.0 mi NE 9.2 mph - N/A   Clear
3:53 PM 80.1 °F 80.6 °F 57.9 °F 47% 30.03 in 10.0 mi NNE 10.4 mph 17.3 mph N/A   Partly Cloudy
4:53 PM 79.0 °F - 59.0 °F 50% 30.02 in 10.0 mi North 13.8 mph - N/A   Clear
5:53 PM 77.0 °F - 57.9 °F 52% 30.03 in 10.0 mi North 12.7 mph - N/A   Scattered Clouds
6:53 PM 75.0 °F - 57.0 °F 53% 30.02 in 10.0 mi NNW 11.5 mph - N/A   Clear
7:53 PM 72.0 °F - 55.9 °F 57% 30.03 in 10.0 mi North 6.9 mph - N/A   Clear
8:53 PM 69.1 °F - 57.9 °F 68% 30.04 in 10.0 mi NW 6.9 mph - N/A   Clear
9:53 PM 66.9 °F - 57.0 °F 70% 30.06 in 10.0 mi North 4.6 mph - N/A   Clear
10:53 PM 66.0 °F - 55.9 °F 70% 30.07 in 10.0 mi North 6.9 mph - N/A   Clear
11:53 PM 64.0 °F - 55.0 °F 73% 30.08 in 10.0 mi North 4.6 mph - N/A   Clear